This demonstration page uses our WeatherBlox Daily Observations layout. Learn more.

Left ArrowRight Arrow

39.12711, -84.51439

Hourly Observations for November 7, 2020

Temp ( °F °C ) Dew Point ( °F °C ) Humidity (%) Winds ( mph kmh ) Pressure ( in mb ) Visibility ( mi km ) Precip ( " mm )
12:00 am 00:00 Clear with Mist and Fog 41 5 41 5 100 100 Calm 30.30 1026 2 3 0.00 0.00
12:09 am 00:09 Clear with Mist and Fog 41 5 41 5 100 100 Calm 30.30 1026 3 5 0.00 0.00
12:21 am 00:21 Clear with Mist and Fog 40 4.4 39 3.9 97 97 Calm 30.30 1026 2 2 0.00 0.00
12:30 am 00:30 Clear with Fog 41 5 39 3.9 93 93 Calm 30.30 1026 0 0 0.00 0.00
12:44 am 00:44 Clear with Fog 40 4.4 40 4.4 100 100 Calm 30.30 1026 1 1 0.00 0.00
12:53 am 00:53 Clear with Fog 41 5 40 4.4 96 96 Calm 30.28 1025 1 1 0.00 0.00
1:16 am 01:16 Clear with Mist and Fog 40 4.4 39 3.9 97 97 Calm 30.30 1026 2 2 0.00 0.00
1:35 am 01:35 Clear with Mist and Fog 38 3.3 38 3.3 100 100 Calm 30.30 1026 1 1 0.00 0.00
1:53 am 01:53 Clear with Fog 39 3.9 38 3.3 96 96 Calm 30.28 1025 1 1 0.00 0.00
2:06 am 02:06 Clear with Mist and Fog 39 3.9 38 3.3 96 96 Calm 30.30 1026 2 3 0.00 0.00
2:13 am 02:13 Clear with Fog 38 3.3 38 3.3 100 100 Calm 30.30 1026 0 0 0.00 0.00
2:25 am 02:25 Clear with Mist and Fog 37 2.8 36 2.2 96 96 Calm 30.31 1026 1 2 0.00 0.00
2:49 am 02:49 Clear with Fog 37 3 37 3 100 100 Calm 30.31 1026 1 1 0.00 0.00
2:53 am 02:53 Clear with Fog 39 3.9 38 3.3 96 96 Calm 30.28 1026 0 0 0.00 0.00
3:29 am 03:29 Clear with Mist and Fog 39 3.9 39 3.9 100 100 Calm 30.31 1026 1 2 0.00 0.00
3:50 am 03:50 Clear with Mist and Fog 37 3 37 3 100 100 NE 3 6 30.31 1026 3 5 0.00 0.00
3:53 am 03:53 Clear with Mist and Fog 36 2.2 36 2.2 100 100 NE 3 6 30.29 1026 3 5 0.00 0.00
4:17 am 04:17 Clear with Mist and Fog 37 2.8 37 2.8 100 100 Calm 30.31 1026 2 3 0.00 0.00
4:24 am 04:24 Clear with Mist and Fog 36 2.2 35 1.7 97 97 ENE 3 6 30.31 1027 1 2 0.00 0.00
4:39 am 04:39 Clear with Mist and Fog 35 1.7 34 1.1 96 96 Calm 30.31 1027 3 4 0.00 0.00
4:46 am 04:46 Clear with Mist and Fog 34 1.1 33 0.6 97 97 Calm 30.32 1027 4 6 0.00 0.00
4:53 am 04:53 Clear with Mist and Fog 34 1.1 33 0.6 97 97 Calm 30.29 1026 2 2 0.00 0.00
5:05 am 05:05 Clear with Mist and Fog 35 1.7 33 0.6 93 93 Calm 30.32 1027 3 5 0.00 0.00
5:20 am 05:20 Mostly Clear with Mist and Fog 35 1.7 34 1.1 96 96 Calm 30.32 1027 5 8 0.00 0.00
5:39 am 05:39 Partly Cloudy with Mist and Fog 37 2.8 36 2.2 96 96 Calm 30.32 1027 2 3 0.00 0.00
5:42 am 05:42 Mostly Cloudy with Mist and Fog 36 2.2 35 1.7 97 97 Calm 30.32 1027 1 1 0.00 0.00
5:53 am 05:53 Mostly Cloudy with Mist and Fog 37 2.8 36 2.2 96 96 Calm 30.30 1026 1 1 0.00 0.00
6:07 am 06:07 Mostly Cloudy with Fog 36 2.2 35 1.7 97 97 Calm 30.32 1027 0 0 0.00 0.00
6:15 am 06:15 Mostly Cloudy with Fog 36 2.2 35 1.7 97 97 Calm 30.32 1027 1 1 0.00 0.00
6:30 am 06:30 Mostly Cloudy with Fog 36 2.2 36 2.2 100 100 Calm 30.33 1027 0 0 0.00 0.00
6:53 am 06:53 Mostly Cloudy with Fog 36 2.2 35 1.7 97 97 Calm 30.32 1027 N/A 0.00 0.00
7:53 am 07:53 Mostly Cloudy with Fog 39 3.9 38 3.3 96 96 Calm 30.34 1027 N/A 0.00 0.00
8:53 am 08:53 Cloudy with Fog 41 5 41 5 100 100 Calm 30.35 1028 1 1 0.00 0.00
9:23 am 09:23 Cloudy with Mist and Fog 44 6.7 44 6.7 100 100 Calm 30.35 1028 3 5 0.00 0.00
9:40 am 09:40 Partly Cloudy 46 7.8 46 7.8 100 100 Calm 30.35 1028 8 13 0.00 0.00
9:53 am 09:53 Sunny 47 8.3 46 7.8 97 97 Calm 30.35 1028 8 13 0.00 0.00
10:53 am 10:53 Sunny 58 14.4 49 9.4 72 72 Calm 30.34 1027 10 16 0.00 0.00
11:53 am 11:53 Sunny 66 18.9 47 8.3 50 50 Calm 30.31 1026 10 16 0.00 0.00
12:53 pm 12:53 Sunny 71 21.7 45 7.2 39 39 SSW 6 9 30.27 1025 10 16 0.00 0.00
1:53 pm 13:53 Sunny 73 22.8 44 6.7 35 35 SW 6 9 30.24 1024 10 16 0.00 0.00
2:53 pm 14:53 Sunny 75 23.9 42 5.6 31 31 VRB 3 6 30.23 1024 10 16 0.00 0.00
3:53 pm 15:53 Sunny 75 23.9 41 5 29 29 VRB 3 6 30.23 1024 10 16 0.00 0.00
4:53 pm 16:53 Sunny 71 21.7 42 5.6 35 35 SSE 5 7 30.23 1024 10 16 0.00 0.00
5:53 pm 17:53 Clear 58 14.4 47 8.3 67 67 Calm 30.24 1024 10 16 0.00 0.00
6:53 pm 18:53 Clear 53 11.7 45 7.2 74 74 Calm 30.25 1024 10 16 0.00 0.00
7:53 pm 19:53 Clear 51 10.6 45 7.2 80 80 Calm 30.25 1025 10 16 0.00 0.00
8:53 pm 20:53 Clear 49 9.4 45 7.2 86 86 Calm 30.26 1025 10 16 0.00 0.00
9:53 pm 21:53 Clear 47 8.3 43 6.1 86 86 Calm 30.27 1025 10 16 0.00 0.00
10:53 pm 22:53 Clear 46 7.8 43 6.1 89 89 Calm 30.27 1025 8 13 0.00 0.00
11:53 pm 23:53 Clear 45 7.2 42 5.6 90 90 Calm 30.26 1025 8 13 0.00 0.00

Powered by AerisWeather